User: anonymous   Login
Location: Unspecified
(0.0000°N, 0.0000°E)
Time: 13:35:03
(UTC+00:00)
Language:

IGS R-6 - Orbit

View from above orbital plane
View from above orbital plane
View from above satellite
View from above satellite

Ground track
Ground track

The orbit data is extracted from the following two-line orbital elements,

1 43495U 18052A   18223.98702807 0.00000000  00000-0  00000-0 0    01
2 43495  97.3745 339.2468 0003000 259.4692 100.5307 15.25981680    08
Epoch (UTC): 11 August 2018 23:41:19
Eccentricity: 0.0003000
inclination: 97.3745°
perigee height: 486 km
apogee height: 490 km
right ascension of ascending node: 339.2468°
argument of perigee: 259.4692°
revolutions per day: 15.25981680
mean anomaly at epoch: 100.5307°
orbit number at epoch: 0

The dashed part of the orbit path shows where the satellite is in the earth's shadow,  

DLR